Regional Weather Roundup
Issued by NWS

Home | Current Version | Previous Version | Graphics & Text | Print | Product List | Glossary On
Versions: 1 2 3 4 5 6 7 8 9 10 11 12 13 14 15 16 17 18 19 20 21 22 23 24 25 26 27 28 29 30 31 32 33 34 35 36 37 38 39 40 41 42 43 44 45 46 47 48 49 50
000
ASUS43 KBIS 270310
RWRND

NORTH DAKOTA REGIONAL WEATHER ROUNDUP
NATIONAL WEATHER SERVICE BISMARCK ND
900 PM CST MON JAN 26 2015

NOTE: "FAIR" INDICATES FEW OR NO CLOUDS BELOW 12,000 FEET WITH NO
SIGNIFICANT WEATHER AND/OR OBSTRUCTIONS TO VISIBILITY.


NDZ001>003-009>011-017-270400-
NORTHWEST NORTH DAKOTA

CITY           SKY/WX    TMP DP  RH WIND       PRES   REMARKS
WILLISTON      PTCLDY    34  30  85 CALM      29.89F
MINOT          CLEAR     32  29  88 S6        29.93S
MINOT AFB      CLEAR     29  29 100 S8        29.92F
$$

NDZ018>021-031>035-040>046-270400-
SOUTHWEST NORTH DAKOTA

CITY           SKY/WX    TMP DP  RH WIND       PRES   REMARKS
BISMARCK       CLEAR     33  31  92 NE5       29.98S
DICKINSON      PTCLDY    35  29  78 S7        29.90S
GARRISON         N/A     33  31  92 E3        29.94F
HETTINGER ARPT CLEAR     35  30  82 S3        29.94F
$$

NDZ004>008-012>016-024-026-027-054-270400-
NORTHEAST NORTH DAKOTA

CITY           SKY/WX    TMP DP  RH WIND       PRES   REMARKS
GRAND FORKS    PTCLDY    25  23  92 NE3       30.00R
GRND FRKS AFB  MOCLDY    26  23  89 NE2       30.01R
DEVILS LAKE    PTCLDY    28  27  93 CALM      29.97R
$$

NDZ022-023-025-028>030-036>039-047>053-270400-
SOUTHEAST NORTH DAKOTA

CITY           SKY/WX    TMP DP  RH WIND       PRES   REMARKS
FARGO          CLOUDY    30  26  85 N5        30.00R
JAMESTOWN      CLEAR     31  29  92 CALM      29.98R
$$



USA.gov is the U.S. government's official web portal to all federal, state and local government web resources and services.